contact:dominique.lefevre@mio.osupytheas.fr, maurice.libes@osupytheas.fr, didier.mallarino@osupytheas.fr
Project:EMSO http://www.emso-fr.org/EMSO-France
Depth: 2436.0 m
Title:EMSO Ligure Ouest : Data MII capteur AQUADOPP
Date,Latitude,Longitude,X_East,Y_North,Z_Up,Amplitude_X,Amplitude_Y,Amplitude_Z,Batterie,SoundSpeed,Heading,Pitch,Roll,Pressure,TIS,Speed,Direction
, degrees North, degrees East, m.s-1, m.s-1,m.s-1, 1, 1, 1, Volt, m.s-1, degree, degree, degree, dbar, degree_C, m.s-1, degree
2019-07-04T00:09:04,42.805,6.029,-0.049,0.017,-0.019,101.0,104.0,96.0,13.4,1505.2,326.0,-0.8,1.8,2470.197,13.29,0.051,289.1
2019-07-04T00:12:05,42.805,6.029,-0.04,0.012,0.002,100.0,104.0,98.0,13.4,1505.2,326.7,-0.7,1.9,2470.176,13.3,0.041,286.7
2019-07-04T00:15:06,42.805,6.029,-0.039,0.012,0.0,100.0,108.0,99.0,13.4,1505.3,324.6,-0.7,1.8,2470.174,13.31,0.04,287.1
2019-07-04T00:18:07,42.805,6.029,-0.062,0.004,-0.042,101.0,104.0,98.0,13.4,1505.3,325.2,-0.8,1.9,2470.129,13.32,0.062,273.7
2019-07-04T00:21:08,42.805,6.029,-0.054,0.021,-0.055,99.0,105.0,98.0,13.3,1505.3,327.6,-0.7,1.8,2470.133,13.32,0.057,291.2
2019-07-04T00:24:09,42.805,6.029,-0.062,0.007,-0.004,100.0,104.0,98.0,13.4,1505.3,323.5,-0.8,1.8,2470.132,13.32,0.062,276.4
2019-07-04T00:27:10,42.805,6.029,-0.053,0.011,-0.012,102.0,104.0,97.0,13.4,1505.3,325.0,-0.7,1.8,2470.136,13.32,0.054,281.7
2019-07-04T00:30:11,42.805,6.029,-0.047,0.008,-0.037,100.0,105.0,97.0,13.4,1505.3,325.1,-0.7,1.9,2470.08,13.32,0.047,279.7
2019-07-04T00:33:12,42.805,6.029,-0.062,0.017,-0.041,100.0,105.0,97.0,13.4,1505.3,326.1,-0.7,1.8,2470.109,13.33,0.064,285.3
2019-07-04T00:36:13,42.805,6.029,-0.036,0.018,-0.034,100.0,104.0,97.0,13.4,1505.3,324.6,-0.7,1.9,2470.125,13.32,0.04,296.6
2019-07-04T00:39:14,42.805,6.029,-0.053,0.0,-0.032,100.0,104.0,98.0,13.4,1505.3,323.9,-0.7,1.8,2470.116,13.33,0.053,270.0
2019-07-04T00:42:15,42.805,6.029,-0.047,0.029,-0.032,101.0,103.0,97.0,13.3,1505.3,323.4,-0.7,1.8,2470.096,13.33,0.055,301.7
2019-07-04T00:45:16,42.805,6.029,-0.04,0.014,0.003,101.0,105.0,98.0,13.4,1505.3,324.3,-0.7,1.8,2470.099,13.33,0.042,289.3
2019-07-04T00:48:17,42.805,6.029,-0.049,0.0,-0.043,99.0,104.0,99.0,13.4,1505.3,327.4,-0.7,1.9,2470.066,13.33,0.049,270.0
2019-07-04T00:51:18,42.805,6.029,-0.036,0.014,0.003,102.0,107.0,97.0,13.4,1505.3,326.0,-0.7,1.8,2470.076,13.33,0.038,291.2
2019-07-04T00:54:19,42.805,6.029,-0.05,0.028,-0.022,103.0,106.0,98.0,13.3,1505.3,327.8,-0.7,1.8,2470.103,13.33,0.057,299.3
2019-07-04T00:57:20,42.805,6.029,-0.032,0.017,0.008,101.0,105.0,97.0,13.4,1505.3,324.9,-0.7,1.9,2470.09,13.33,0.036,298.0
2019-07-04T01:00:21,42.805,6.029,-0.033,0.002,-0.045,102.0,103.0,97.0,13.4,1505.3,325.7,-0.8,1.9,2470.066,13.33,0.033,273.5
2019-07-04T01:03:22,42.805,6.029,-0.043,0.011,-0.01,101.0,103.0,97.0,13.3,1505.3,324.2,-0.7,1.8,2470.069,13.33,0.044,284.3
2019-07-04T01:06:23,42.805,6.029,-0.05,0.036,-0.022,101.0,104.0,98.0,13.4,1505.3,328.1,-0.7,1.9,2470.082,13.33,0.061,305.8
2019-07-04T01:09:24,42.805,6.029,-0.052,0.011,-0.03,102.0,102.0,97.0,13.4,1505.3,325.9,-0.7,1.8,2470.067,13.33,0.053,281.9
2019-07-04T01:12:25,42.805,6.029,-0.052,-0.001,-0.037,99.0,104.0,98.0,13.4,1505.3,323.9,-0.7,1.8,2470.116,13.33,0.052,268.9
2019-07-04T01:15:26,42.805,6.029,-0.043,0.023,-0.044,101.0,104.0,97.0,13.4,1505.3,325.4,-0.8,1.8,2470.058,13.33,0.048,298.1
2019-07-04T01:18:27,42.805,6.029,-0.074,0.02,-0.011,101.0,106.0,98.0,13.4,1505.3,328.4,-0.7,1.9,2470.083,13.33,0.076,285.1
2019-07-04T01:21:28,42.805,6.029,-0.054,0.033,-0.009,101.0,105.0,99.0,13.4,1505.3,328.3,-0.8,1.8,2470.066,13.33,0.063,301.4
2019-07-04T01:24:29,42.805,6.029,-0.053,0.011,-0.051,101.0,106.0,97.0,13.3,1505.3,324.5,-0.7,1.8,2470.045,13.33,0.054,281.7
2019-07-04T01:27:30,42.805,6.029,-0.068,0.018,-0.034,101.0,104.0,97.0,13.4,1505.3,325.9,-0.7,1.8,2470.098,13.33,0.07,284.8
2019-07-04T01:30:31,42.805,6.029,-0.071,0.035,-0.008,99.0,105.0,97.0,13.4,1505.3,325.6,-0.7,1.9,2470.027,13.33,0.079,296.2
2019-07-04T01:33:32,42.805,6.029,-0.063,0.027,-0.032,101.0,105.0,98.0,13.4,1505.3,324.1,-0.7,1.8,2470.014,13.33,0.068,293.2
2019-07-04T01:36:33,42.805,6.029,-0.05,0.007,-0.045,103.0,105.0,98.0,13.4,1505.3,324.0,-0.7,1.8,2470.042,13.33,0.05,278.0
2019-07-04T01:39:34,42.805,6.029,-0.034,-0.001,-0.004,101.0,105.0,98.0,13.4,1505.3,327.6,-0.7,1.9,2470.056,13.33,0.034,268.3
2019-07-04T01:42:35,42.805,6.029,-0.083,0.018,-0.057,101.0,105.0,100.0,13.3,1505.3,327.9,-0.7,1.8,2470.049,13.33,0.084,282.2
2019-07-04T01:45:36,42.805,6.029,-0.046,0.01,-0.025,103.0,106.0,98.0,13.4,1505.3,324.5,-0.7,1.8,2470.06,13.33,0.047,282.3
2019-07-04T01:48:37,42.805,6.029,-0.049,0.019,-0.038,100.0,105.0,97.0,13.3,1505.3,326.4,-0.7,1.9,2470.052,13.33,0.052,291.2
2019-07-04T01:51:38,42.805,6.029,-0.037,0.015,-0.037,101.0,106.0,97.0,13.4,1505.3,327.1,-0.7,1.8,2470.017,13.33,0.039,292.1
2019-07-04T01:54:39,42.805,6.029,-0.052,-0.003,-0.039,101.0,104.0,97.0,13.4,1505.3,325.2,-0.7,1.8,2470.025,13.33,0.052,266.7
2019-07-04T01:57:40,42.805,6.029,-0.048,0.002,-0.011,101.0,106.0,98.0,13.4,1505.3,325.2,-0.7,1.8,2469.988,13.33,0.048,272.4
2019-07-04T02:00:41,42.805,6.029,-0.033,0.009,-0.043,101.0,107.0,97.0,13.4,1505.3,324.8,-0.7,1.8,2470.015,13.33,0.034,285.3
2019-07-04T02:03:42,42.805,6.029,-0.065,-0.004,-0.052,101.0,103.0,98.0,13.4,1505.3,324.4,-0.7,1.8,2470.007,13.33,0.065,266.5
2019-07-04T02:06:43,42.805,6.029,-0.049,-0.002,-0.034,101.0,104.0,98.0,13.3,1505.3,325.3,-0.7,1.8,2470.006,13.33,0.049,267.7
2019-07-04T02:09:44,42.805,6.029,-0.053,0.011,-0.018,101.0,105.0,98.0,13.4,1505.3,327.7,-0.7,1.9,2470.017,13.33,0.054,281.7
2019-07-04T02:12:45,42.805,6.029,-0.046,0.012,-0.015,101.0,104.0,99.0,13.3,1505.3,323.3,-0.7,1.8,2470.027,13.33,0.047,284.6
2019-07-04T02:15:46,42.805,6.029,-0.028,0.01,-0.029,100.0,105.0,98.0,13.4,1505.3,323.9,-0.7,1.8,2470.001,13.33,0.029,289.6
2019-07-04T02:18:47,42.805,6.029,-0.059,0.01,-0.036,100.0,106.0,98.0,13.3,1505.3,326.5,-0.7,1.8,2469.986,13.33,0.059,279.6
2019-07-04T02:21:48,42.805,6.029,-0.091,0.016,-0.082,102.0,105.0,96.0,13.4,1505.3,323.3,-0.7,1.8,2470.011,13.33,0.092,280.0
2019-07-04T02:24:49,42.805,6.029,-0.055,0.0,-0.014,102.0,106.0,98.0,13.4,1505.3,326.2,-0.7,1.8,2470.029,13.33,0.055,270.0
2019-07-04T02:27:50,42.805,6.029,-0.065,0.003,-0.026,100.0,103.0,97.0,13.3,1505.3,327.8,-0.7,1.9,2470.03,13.33,0.065,272.6
2019-07-04T02:30:51,42.805,6.029,-0.04,0.012,0.021,100.0,103.0,98.0,13.4,1505.3,325.0,-0.7,1.8,2470.034,13.33,0.041,286.7
2019-07-04T02:33:52,42.805,6.029,-0.048,0.01,-0.014,101.0,105.0,97.0,13.4,1505.3,324.7,-0.7,1.9,2470.04,13.33,0.049,281.8
2019-07-04T02:36:53,42.805,6.029,-0.054,0.011,-0.01,101.0,103.0,99.0,13.3,1505.3,326.5,-0.7,1.8,2470.033,13.33,0.055,281.5
2019-07-04T02:39:54,42.805,6.029,-0.048,0.015,-0.019,100.0,105.0,98.0,13.3,1505.3,324.6,-0.7,1.9,2469.987,13.33,0.05,287.4
2019-07-04T02:42:55,42.805,6.029,-0.053,0.019,-0.038,100.0,104.0,97.0,13.3,1505.3,325.4,-0.7,1.8,2470.025,13.33,0.056,289.7
2019-07-04T02:45:56,42.805,6.029,-0.033,0.023,-0.009,100.0,105.0,97.0,13.4,1505.3,327.6,-0.7,1.9,2469.991,13.33,0.04,304.9
2019-07-04T02:48:57,42.805,6.029,-0.058,0.027,-0.028,101.0,106.0,98.0,13.4,1505.3,323.3,-0.7,1.9,2470.035,13.33,0.063,295.0
2019-07-04T02:51:58,42.805,6.029,-0.056,-0.009,-0.031,100.0,105.0,97.0,13.4,1505.3,325.7,-0.7,1.8,2470.035,13.33,0.056,260.9
2019-07-04T02:54:59,42.805,6.029,-0.035,0.014,0.002,100.0,106.0,98.0,13.4,1505.3,325.0,-0.8,1.8,2469.99,13.33,0.037,291.8
2019-07-04T02:58:00,42.805,6.029,-0.067,0.018,0.024,100.0,105.0,97.0,13.4,1505.3,324.1,-0.7,1.8,2469.983,13.33,0.069,285.0
2019-07-04T03:01:01,42.805,6.029,-0.078,0.033,-0.032,101.0,104.0,97.0,13.4,1505.3,324.0,-0.7,1.8,2469.988,13.33,0.084,292.9
2019-07-04T03:04:02,42.805,6.029,-0.028,0.008,-0.025,100.0,104.0,98.0,13.4,1505.3,327.9,-0.7,1.8,2470.007,13.33,0.029,285.9
2019-07-04T03:07:03,42.805,6.029,-0.063,0.006,-0.068,99.0,105.0,98.0,13.3,1505.3,323.3,-0.7,1.9,2469.994,13.33,0.063,275.4
2019-07-04T03:10:04,42.805,6.029,-0.058,0.026,-0.043,102.0,105.0,97.0,13.4,1505.3,324.4,-0.7,1.8,2469.98,13.33,0.063,294.1
2019-07-04T03:13:05,42.805,6.029,-0.048,0.017,-0.047,101.0,105.0,96.0,13.4,1505.3,324.0,-0.7,1.8,2469.976,13.33,0.05,289.5
2019-07-04T03:16:06,42.805,6.029,-0.041,0.018,-0.01,102.0,106.0,98.0,13.4,1505.3,326.7,-0.7,1.8,2469.958,13.33,0.044,293.7
2019-07-04T03:19:07,42.805,6.029,-0.056,0.01,-0.038,101.0,105.0,98.0,13.4,1505.3,327.7,-0.7,1.9,2470.044,13.33,0.056,280.1
2019-07-04T03:22:08,42.805,6.029,-0.059,0.027,-0.031,101.0,107.0,98.0,13.4,1505.3,323.7,-0.7,1.8,2470.048,13.33,0.064,294.6
2019-07-04T03:25:09,42.805,6.029,-0.052,0.007,-0.006,101.0,104.0,97.0,13.4,1505.3,323.5,-0.7,1.9,2469.979,13.33,0.052,277.7
2019-07-04T03:28:10,42.805,6.029,-0.058,0.025,-0.013,100.0,105.0,98.0,13.4,1505.3,325.4,-0.7,1.8,2469.972,13.33,0.063,293.3
2019-07-04T03:31:11,42.805,6.029,-0.044,0.01,-0.014,101.0,106.0,98.0,13.4,1505.3,326.8,-0.7,1.9,2470.003,13.33,0.045,282.8
2019-07-04T03:34:12,42.805,6.029,-0.012,0.026,-0.014,100.0,106.0,97.0,13.4,1505.3,326.2,-0.7,1.8,2470.001,13.33,0.028,335.2
2019-07-04T03:37:13,42.805,6.029,-0.062,0.04,-0.016,100.0,105.0,97.0,13.3,1505.3,324.0,-0.8,1.9,2470.028,13.33,0.073,302.8
2019-07-04T03:40:14,42.805,6.029,-0.048,0.025,-0.046,100.0,105.0,98.0,13.4,1505.3,324.3,-0.7,1.8,2470.042,13.33,0.054,297.5
2019-07-04T03:43:15,42.805,6.029,-0.062,0.005,-0.054,102.0,105.0,98.0,13.4,1505.3,325.4,-0.7,1.8,2470.031,13.33,0.062,274.6
2019-07-04T03:46:16,42.805,6.029,-0.076,0.031,-0.034,101.0,104.0,97.0,13.3,1505.3,325.0,-0.7,1.8,2470.017,13.33,0.082,292.2
2019-07-04T03:49:17,42.805,6.029,-0.041,0.017,-0.034,101.0,104.0,98.0,13.3,1505.3,326.0,-0.7,1.8,2470.064,13.33,0.044,292.5
2019-07-04T03:52:18,42.805,6.029,-0.042,0.023,-0.064,100.0,105.0,97.0,13.3,1505.3,326.3,-0.7,1.9,2469.998,13.33,0.047,298.7
2019-07-04T03:55:19,42.805,6.029,-0.04,0.004,-0.038,100.0,105.0,97.0,13.4,1505.3,324.7,-0.7,1.9,2470.042,13.33,0.04,275.7
2019-07-04T03:58:20,42.805,6.029,-0.06,0.012,-0.037,100.0,105.0,97.0,13.3,1505.3,325.9,-0.8,1.8,2470.011,13.33,0.061,281.3
2019-07-04T04:01:21,42.805,6.029,-0.047,0.022,-0.019,100.0,105.0,96.0,13.4,1505.3,326.2,-0.7,1.8,2470.016,13.33,0.051,295.1
2019-07-04T04:04:22,42.805,6.029,-0.058,0.019,-0.021,101.0,105.0,98.0,13.4,1505.3,325.7,-0.7,1.8,2470.042,13.33,0.061,288.1
2019-07-04T04:07:23,42.805,6.029,-0.049,0.012,-0.022,101.0,105.0,97.0,13.3,1505.3,324.9,-0.7,1.8,2470.019,13.33,0.05,283.8
2019-07-04T04:10:24,42.805,6.029,-0.072,0.024,0.0,100.0,106.0,98.0,13.3,1505.3,323.4,-0.7,1.8,2470.023,13.33,0.075,288.4
2019-07-04T04:13:25,42.805,6.029,-0.021,0.035,-0.006,102.0,105.0,98.0,13.4,1505.3,326.2,-0.8,1.8,2469.975,13.33,0.04,329.0
2019-07-04T04:16:26,42.805,6.029,-0.052,0.0,-0.029,102.0,106.0,99.0,13.4,1505.3,325.9,-0.7,1.8,2470.012,13.33,0.052,270.0
2019-07-04T04:19:27,42.805,6.029,-0.041,0.022,-0.018,101.0,105.0,98.0,13.3,1505.3,327.0,-0.7,1.8,2470.001,13.33,0.046,298.2
2019-07-04T04:22:28,42.805,6.029,-0.037,0.01,-0.032,99.0,105.0,97.0,13.4,1505.3,326.9,-0.8,1.8,2470.035,13.33,0.038,285.1
2019-07-04T04:25:29,42.805,6.029,-0.033,0.038,-0.032,99.0,103.0,98.0,13.3,1505.3,326.8,-0.8,1.8,2470.002,13.33,0.05,319.0
2019-07-04T04:28:30,42.805,6.029,-0.048,0.028,-0.001,99.0,106.0,97.0,13.3,1505.3,324.3,-0.7,1.8,2470.011,13.33,0.055,300.3
2019-07-04T04:31:31,42.805,6.029,-0.05,0.008,-0.053,101.0,104.0,98.0,13.3,1505.3,324.6,-0.7,1.8,2470.001,13.33,0.05,279.1
2019-07-04T04:34:32,42.805,6.029,-0.059,0.015,-0.056,100.0,105.0,98.0,13.4,1505.3,323.2,-0.8,1.8,2470.031,13.33,0.06,284.3
2019-07-04T04:37:33,42.805,6.029,-0.054,0.009,-0.026,100.0,106.0,98.0,13.4,1505.3,324.4,-0.7,1.8,2470.063,13.33,0.054,279.5
2019-07-04T04:40:34,42.805,6.029,-0.05,0.03,-0.008,102.0,104.0,96.0,13.4,1505.3,323.4,-0.7,1.8,2470.016,13.33,0.058,301.0
2019-07-04T04:43:35,42.805,6.029,-0.036,0.011,-0.027,101.0,104.0,97.0,13.3,1505.3,324.8,-0.7,1.8,2470.016,13.33,0.037,287.0
2019-07-04T04:46:36,42.805,6.029,-0.045,0.025,-0.019,100.0,105.0,96.0,13.4,1505.3,327.0,-0.7,1.8,2470.042,13.33,0.051,299.1
2019-07-04T04:49:37,42.805,6.029,-0.061,0.024,-0.026,100.0,106.0,97.0,13.3,1505.3,327.2,-0.7,1.8,2470.046,13.33,0.065,291.5
2019-07-04T04:52:38,42.805,6.029,-0.043,0.009,-0.026,100.0,105.0,96.0,13.4,1505.3,325.3,-0.7,1.9,2470.039,13.33,0.043,281.8
2019-07-04T04:55:39,42.805,6.029,-0.05,0.024,-0.007,100.0,106.0,98.0,13.4,1505.3,324.1,-0.7,1.8,2470.077,13.33,0.055,295.6
2019-07-04T04:58:40,42.805,6.029,-0.035,0.013,-0.032,101.0,105.0,97.0,13.3,1505.3,327.0,-0.8,1.8,2470.096,13.33,0.037,290.4
2019-07-04T05:01:41,42.805,6.029,-0.084,0.032,-0.03,100.0,105.0,97.0,13.3,1505.3,327.3,-0.7,1.8,2470.024,13.33,0.089,290.9
2019-07-04T05:04:42,42.805,6.029,-0.071,0.016,0.006,101.0,105.0,97.0,13.3,1505.3,326.4,-0.7,1.9,2470.044,13.33,0.072,282.7
2019-07-04T05:07:43,42.805,6.029,-0.06,0.01,-0.021,100.0,105.0,97.0,13.4,1505.3,328.2,-0.7,1.9,2470.08,13.33,0.06,279.5
2019-07-04T05:10:44,42.805,6.029,-0.024,0.013,0.015,100.0,106.0,97.0,13.4,1505.3,325.6,-0.7,1.9,2470.099,13.33,0.027,298.4
2019-07-04T05:13:45,42.805,6.029,-0.044,0.017,-0.013,101.0,107.0,97.0,13.4,1505.3,326.1,-0.7,1.8,2470.082,13.33,0.047,291.1
2019-07-04T05:16:46,42.805,6.029,-0.047,0.018,0.004,100.0,107.0,97.0,13.4,1505.3,324.7,-0.7,1.8,2470.105,13.33,0.05,291.0
2019-07-04T05:19:47,42.805,6.029,-0.094,0.005,-0.04,101.0,105.0,97.0,13.3,1505.3,325.8,-0.8,1.8,2470.023,13.33,0.094,273.0
2019-07-04T05:22:48,42.805,6.029,-0.063,0.009,-0.016,104.0,106.0,98.0,13.4,1505.3,326.8,-0.7,1.9,2470.03,13.33,0.063,278.1
2019-07-04T05:25:49,42.805,6.029,-0.048,0.013,-0.002,100.0,105.0,100.0,13.4,1505.3,323.8,-0.7,1.8,2470.067,13.33,0.049,285.2
2019-07-04T05:28:50,42.805,6.029,-0.039,0.015,0.019,99.0,106.0,98.0,13.4,1505.3,324.6,-0.7,1.9,2470.033,13.33,0.041,291.0
2019-07-04T05:31:51,42.805,6.029,-0.038,0.017,-0.023,103.0,108.0,98.0,13.4,1505.3,327.7,-0.7,1.9,2470.092,13.33,0.041,294.1
2019-07-04T05:34:52,42.805,6.029,-0.055,0.001,-0.02,101.0,107.0,97.0,13.4,1505.3,325.7,-0.7,1.8,2470.078,13.33,0.055,271.0
2019-07-04T05:37:53,42.805,6.029,-0.032,0.011,-0.034,101.0,106.0,98.0,13.4,1505.3,323.7,-0.7,1.8,2470.092,13.33,0.033,289.0
2019-07-04T05:40:54,42.805,6.029,-0.075,0.017,-0.038,103.0,107.0,97.0,13.3,1505.3,325.4,-0.7,1.8,2470.08,13.33,0.076,282.8
2019-07-04T05:43:55,42.805,6.029,-0.041,0.032,-0.014,103.0,105.0,97.0,13.4,1505.3,326.8,-0.7,1.9,2470.066,13.33,0.052,308.0
2019-07-04T05:46:56,42.805,6.029,-0.057,0.018,-0.042,101.0,106.0,97.0,13.3,1505.3,325.2,-0.7,1.9,2470.117,13.33,0.059,287.5
2019-07-04T05:49:57,42.805,6.029,-0.042,0.014,-0.018,100.0,106.0,97.0,13.4,1505.3,327.2,-0.8,1.8,2470.07,13.33,0.044,288.4
2019-07-04T05:52:58,42.805,6.029,-0.076,-0.011,-0.044,101.0,105.0,98.0,13.4,1505.3,322.8,-0.7,1.8,2470.081,13.33,0.076,261.8
2019-07-04T05:55:59,42.805,6.029,-0.048,0.03,-0.014,100.0,106.0,97.0,13.4,1505.3,326.3,-0.8,1.8,2470.118,13.33,0.056,302.0
2019-07-04T05:59:00,42.805,6.029,-0.055,0.025,-0.008,100.0,107.0,99.0,13.3,1505.3,323.2,-0.7,1.8,2470.055,13.33,0.06,294.4
2019-07-04T06:02:01,42.805,6.029,-0.045,0.007,-0.044,101.0,107.0,98.0,13.4,1505.3,327.9,-0.8,1.8,2470.122,13.33,0.045,278.8
2019-07-04T06:05:02,42.805,6.029,-0.05,0.027,-0.024,100.0,105.0,97.0,13.3,1505.3,328.1,-0.7,1.8,2470.102,13.33,0.056,298.4
2019-07-04T06:08:03,42.805,6.029,-0.043,0.016,-0.038,101.0,105.0,97.0,13.4,1505.3,323.9,-0.7,1.8,2470.132,13.33,0.045,290.4
2019-07-04T06:11:04,42.805,6.029,-0.04,0.008,-0.027,101.0,107.0,97.0,13.3,1505.3,323.9,-0.7,1.8,2470.08,13.33,0.04,281.3
2019-07-04T06:14:05,42.805,6.029,-0.044,0.021,-0.016,102.0,105.0,98.0,13.4,1505.3,323.6,-0.7,1.8,2470.137,13.33,0.048,295.5
2019-07-04T06:17:06,42.805,6.029,-0.057,0.008,-0.023,101.0,106.0,97.0,13.4,1505.3,325.1,-0.7,1.8,2470.129,13.33,0.057,278.0
2019-07-04T06:20:07,42.805,6.029,-0.068,0.026,-0.011,101.0,104.0,98.0,13.4,1505.3,323.9,-0.7,1.8,2470.106,13.33,0.072,290.9
2019-07-04T06:23:08,42.805,6.029,-0.063,-0.001,-0.028,103.0,107.0,99.0,13.3,1505.3,323.5,-0.7,1.8,2470.139,13.33,0.063,269.1
2019-07-04T06:26:09,42.805,6.029,-0.043,0.008,-0.038,103.0,108.0,97.0,13.4,1505.3,324.7,-0.7,1.8,2470.167,13.33,0.043,280.5
2019-07-04T06:29:10,42.805,6.029,-0.046,0.027,-0.004,102.0,106.0,98.0,13.4,1505.3,325.3,-0.7,1.8,2470.091,13.33,0.053,300.4
2019-07-04T06:32:11,42.805,6.029,-0.048,-0.012,0.008,102.0,105.0,97.0,13.3,1505.3,323.6,-0.7,1.8,2470.108,13.33,0.049,256.0
2019-07-04T06:35:12,42.805,6.029,-0.059,0.028,0.005,101.0,107.0,97.0,13.4,1505.3,326.9,-0.7,1.8,2470.144,13.33,0.065,295.4
2019-07-04T06:38:13,42.805,6.029,-0.065,0.019,-0.059,102.0,105.0,98.0,13.4,1505.3,325.6,-0.8,1.9,2470.088,13.33,0.067,286.3
2019-07-04T06:41:14,42.805,6.029,-0.061,0.031,-0.02,102.0,107.0,99.0,13.4,1505.3,322.8,-0.7,1.9,2470.163,13.33,0.068,296.9
2019-07-04T06:44:15,42.805,6.029,-0.045,0.029,-0.028,102.0,106.0,97.0,13.3,1505.3,327.6,-0.7,1.8,2470.138,13.33,0.053,302.8
2019-07-04T06:47:16,42.805,6.029,-0.024,0.007,0.002,103.0,107.0,98.0,13.4,1505.3,324.9,-0.7,1.9,2470.104,13.33,0.025,286.3
2019-07-04T06:50:17,42.805,6.029,-0.052,0.019,-0.041,102.0,105.0,99.0,13.3,1505.3,324.5,-0.7,1.8,2470.114,13.33,0.055,290.1
2019-07-04T06:53:18,42.805,6.029,-0.071,0.029,-0.042,99.0,105.0,99.0,13.4,1505.3,328.0,-0.7,1.8,2470.142,13.33,0.076,292.2
2019-07-04T06:56:19,42.805,6.029,-0.069,0.018,-0.033,100.0,106.0,97.0,13.4,1505.3,324.7,-0.7,1.8,2470.142,13.33,0.071,284.6
2019-07-04T06:59:20,42.805,6.029,-0.037,0.015,-0.025,100.0,107.0,97.0,13.4,1505.3,323.6,-0.7,1.8,2470.143,13.33,0.039,292.1
2019-07-04T07:02:21,42.805,6.029,-0.054,0.035,-0.036,100.0,106.0,99.0,13.4,1505.3,324.5,-0.7,1.9,2470.128,13.33,0.064,303.0
2019-07-04T07:05:22,42.805,6.029,-0.066,0.021,-0.012,99.0,106.0,99.0,13.4,1505.3,326.2,-0.7,1.8,2470.163,13.33,0.069,287.6
2019-07-04T07:08:23,42.805,6.029,-0.058,0.023,-0.026,101.0,106.0,97.0,13.3,1505.3,324.2,-0.7,1.8,2470.112,13.33,0.062,291.6
2019-07-04T07:11:24,42.805,6.029,-0.059,0.013,-0.05,100.0,106.0,99.0,13.4,1505.3,324.4,-0.7,1.9,2470.173,13.33,0.06,282.4
2019-07-04T07:14:25,42.805,6.029,-0.031,0.027,-0.004,101.0,106.0,97.0,13.4,1505.3,327.1,-0.7,1.8,2470.122,13.33,0.041,311.1
2019-07-04T07:17:26,42.805,6.029,-0.038,0.007,-0.015,102.0,104.0,97.0,13.4,1505.3,324.4,-0.8,1.9,2470.121,13.33,0.038,280.4
2019-07-04T07:20:27,42.805,6.029,-0.052,0.016,-0.008,100.0,107.0,99.0,13.4,1505.3,323.3,-0.7,1.8,2470.179,13.33,0.054,287.1
2019-07-04T07:23:28,42.805,6.029,-0.075,0.019,-0.002,100.0,105.0,97.0,13.4,1505.3,325.8,-0.7,1.8,2470.159,13.33,0.077,284.2
2019-07-04T07:26:29,42.805,6.029,-0.077,0.024,-0.047,101.0,104.0,98.0,13.3,1505.3,324.4,-0.7,1.9,2470.154,13.33,0.08,287.3
2019-07-04T07:29:30,42.805,6.029,-0.055,0.0,-0.052,101.0,104.0,97.0,13.4,1505.3,325.2,-0.7,1.8,2470.098,13.33,0.055,270.0
2019-07-04T07:32:31,42.805,6.029,-0.052,0.008,-0.025,101.0,106.0,97.0,13.4,1505.3,324.4,-0.7,1.8,2470.16,13.33,0.052,278.7
2019-07-04T07:35:32,42.805,6.029,-0.041,0.027,-0.033,100.0,106.0,97.0,13.4,1505.3,327.0,-0.7,1.8,2470.161,13.33,0.049,303.4
2019-07-04T07:38:33,42.805,6.029,-0.04,0.016,-0.015,101.0,106.0,99.0,13.4,1505.3,324.2,-0.8,1.9,2470.188,13.33,0.043,291.8
2019-07-04T07:41:34,42.805,6.029,-0.044,0.017,-0.037,102.0,104.0,98.0,13.4,1505.3,325.9,-0.7,1.9,2470.172,13.33,0.047,291.1
2019-07-04T07:44:35,42.805,6.029,-0.061,0.015,-0.018,101.0,106.0,99.0,13.4,1505.3,326.1,-0.7,1.9,2470.098,13.33,0.062,283.8
2019-07-04T07:47:36,42.805,6.029,-0.057,0.005,-0.025,101.0,104.0,98.0,13.3,1505.3,325.5,-0.7,1.8,2470.14,13.33,0.057,275.0
2019-07-04T07:50:37,42.805,6.029,-0.044,0.013,-0.014,99.0,105.0,98.0,13.4,1505.3,327.0,-0.7,1.8,2470.13,13.33,0.045,286.5
2019-07-04T07:53:38,42.805,6.029,-0.043,0.006,-0.011,102.0,106.0,98.0,13.3,1505.3,327.4,-0.7,1.8,2470.088,13.33,0.043,277.9
2019-07-04T07:56:39,42.805,6.029,-0.064,0.026,-0.023,101.0,105.0,98.0,13.4,1505.3,325.9,-0.7,1.9,2470.16,13.33,0.069,292.1
2019-07-04T07:59:40,42.805,6.029,-0.075,0.017,-0.023,100.0,105.0,97.0,13.4,1505.3,326.2,-0.7,1.8,2470.17,13.33,0.076,282.8
2019-07-04T08:02:41,42.805,6.029,-0.087,0.018,-0.038,101.0,106.0,96.0,13.3,1505.3,327.4,-0.7,1.8,2470.16,13.33,0.088,281.7
2019-07-04T08:05:42,42.805,6.029,-0.058,0.027,-0.05,99.0,105.0,97.0,13.3,1505.3,326.9,-0.7,1.8,2470.154,13.33,0.063,295.0
2019-07-04T08:08:43,42.805,6.029,-0.045,0.011,-0.027,100.0,106.0,97.0,13.4,1505.3,323.9,-0.7,1.8,2470.171,13.33,0.046,283.7
2019-07-04T08:11:44,42.805,6.029,-0.023,-0.003,-0.031,102.0,106.0,96.0,13.3,1505.3,328.2,-0.7,1.8,2470.153,13.33,0.023,262.6
2019-07-04T08:14:45,42.805,6.029,-0.057,0.02,-0.011,100.0,105.0,100.0,13.4,1505.3,327.1,-0.7,1.8,2470.127,13.33,0.06,289.3
2019-07-04T08:17:46,42.805,6.029,-0.038,0.016,-0.014,102.0,107.0,99.0,13.4,1505.3,323.5,-0.7,1.8,2470.151,13.33,0.041,292.8
2019-07-04T08:20:47,42.805,6.029,-0.05,0.019,-0.012,101.0,106.0,97.0,13.4,1505.3,324.2,-0.7,1.8,2470.145,13.33,0.053,290.8
2019-07-04T08:23:48,42.805,6.029,-0.032,0.026,-0.039,102.0,107.0,98.0,13.4,1505.3,326.5,-0.7,1.8,2470.113,13.33,0.041,309.1
2019-07-04T08:26:49,42.805,6.029,-0.047,0.011,-0.019,101.0,104.0,97.0,13.4,1505.3,325.7,-0.7,1.9,2470.149,13.33,0.048,283.2
2019-07-04T08:29:50,42.805,6.029,-0.076,0.012,-0.047,102.0,106.0,98.0,13.3,1505.3,325.3,-0.7,1.8,2470.145,13.33,0.076,279.0
2019-07-04T08:32:51,42.805,6.029,-0.039,0.012,-0.02,101.0,106.0,99.0,13.4,1505.3,324.4,-0.7,1.8,2470.152,13.33,0.04,287.1
2019-07-04T08:35:52,42.805,6.029,-0.031,0.012,0.007,102.0,105.0,97.0,13.4,1505.3,326.6,-0.7,1.8,2470.125,13.33,0.033,291.2
2019-07-04T08:38:53,42.805,6.029,-0.027,0.02,-0.006,101.0,105.0,98.0,13.4,1505.3,325.5,-0.7,1.8,2470.128,13.33,0.033,306.5
2019-07-04T08:41:54,42.805,6.029,-0.041,0.013,-0.045,102.0,106.0,98.0,13.4,1505.3,324.5,-0.7,1.8,2470.131,13.33,0.043,287.6
2019-07-04T08:44:55,42.805,6.029,-0.07,0.001,-0.019,100.0,106.0,97.0,13.4,1505.3,325.6,-0.8,1.8,2470.15,13.33,0.07,270.8
2019-07-04T08:47:56,42.805,6.029,-0.048,0.009,-0.027,101.0,106.0,97.0,13.3,1505.3,324.9,-0.7,1.8,2470.125,13.33,0.048,280.6
2019-07-04T08:50:57,42.805,6.029,-0.043,0.016,-0.01,101.0,106.0,98.0,13.4,1505.3,326.7,-0.7,1.8,2470.128,13.33,0.045,290.4
2019-07-04T08:53:58,42.805,6.029,-0.026,0.011,0.006,101.0,104.0,98.0,13.3,1505.3,323.0,-0.7,1.8,2470.124,13.33,0.028,292.9
2019-07-04T08:56:59,42.805,6.029,-0.032,0.023,0.0,102.0,105.0,99.0,13.3,1505.3,327.1,-0.8,1.8,2470.149,13.33,0.039,305.7
2019-07-04T09:00:00,42.805,6.029,-0.029,0.019,-0.038,102.0,107.0,98.0,13.4,1505.3,326.1,-0.7,1.9,2470.123,13.33,0.034,303.2
2019-07-04T09:03:01,42.805,6.029,-0.058,-0.003,-0.053,103.0,106.0,98.0,13.4,1505.3,326.1,-0.7,1.9,2470.13,13.33,0.058,267.0
2019-07-04T09:06:02,42.805,6.029,-0.016,0.016,0.025,102.0,105.0,98.0,13.3,1505.3,324.2,-0.7,1.8,2470.112,13.33,0.022,315.0
2019-07-04T09:09:03,42.805,6.029,-0.054,0.002,-0.025,101.0,105.0,98.0,13.4,1505.3,324.9,-0.7,1.8,2470.121,13.33,0.054,272.1
2019-07-04T09:12:04,42.805,6.029,-0.04,0.021,0.004,103.0,106.0,97.0,13.4,1505.3,325.8,-0.7,1.9,2470.182,13.33,0.045,297.7
2019-07-04T09:15:05,42.805,6.029,-0.05,0.008,-0.027,101.0,105.0,99.0,13.4,1505.3,323.8,-0.7,1.8,2470.125,13.33,0.05,279.1
2019-07-04T09:18:06,42.805,6.029,-0.057,0.005,-0.036,101.0,107.0,97.0,13.4,1505.3,322.8,-0.7,1.9,2470.191,13.33,0.057,275.0
2019-07-04T09:21:07,42.805,6.029,-0.073,0.012,-0.05,101.0,107.0,96.0,13.4,1505.3,326.2,-0.7,1.8,2470.133,13.33,0.073,279.3
2019-07-04T09:24:08,42.805,6.029,-0.056,0.031,0.006,100.0,105.0,98.0,13.4,1505.3,325.8,-0.7,1.9,2470.155,13.33,0.064,299.0
2019-07-04T09:27:09,42.805,6.029,-0.062,0.008,-0.014,100.0,105.0,97.0,13.3,1505.3,324.4,-0.7,1.8,2470.131,13.33,0.062,277.3
2019-07-04T09:30:10,42.805,6.029,-0.054,0.013,-0.043,100.0,104.0,99.0,13.3,1505.3,326.9,-0.7,1.8,2470.12,13.33,0.055,283.5
2019-07-04T09:33:11,42.805,6.029,-0.038,0.02,-0.041,100.0,106.0,96.0,13.4,1505.3,326.1,-0.8,1.8,2470.156,13.33,0.042,297.8
2019-07-04T09:36:12,42.805,6.029,-0.04,0.013,-0.063,101.0,106.0,98.0,13.4,1505.3,323.0,-0.8,1.9,2470.146,13.33,0.042,288.0
2019-07-04T09:39:13,42.805,6.029,-0.084,-0.001,-0.078,100.0,105.0,98.0,13.4,1505.3,325.4,-0.7,1.9,2470.116,13.33,0.084,269.3